Flag for India Weather past 2 weeks in Kolkata, West Bengal, India

Now
82 °F

Broken clouds.


Feels Like: 91 °F
Forecast: 78 / 93 °F
Wind: 5 mph from Southeast

Location: Calcutta / Dum Dum

Current Time: Sep 30, 2014 at 3:45:57 PM

Latest Report: Sep 30, 2014 at 2:50 PM


Visibility: 2 mi

Pressure: 29.77 "Hg

Humidity: 84%

Dew point: 77 °F

Location of KolkataLocation

Historic Weather in Kolkata — Graph

°F

Kolkata temperature yesterday

Maximum temperature yesterday: 95 °F (at 11:20 AM)
Minimum temperature yesterday: 82 °F (at 4:50 AM)
Average temperature yesterday: 88 °F

Past Weeks' High & Low Weather Summary

 TemperatureHumidityPressure
High97 °F (Sep 26, 1:50 PM)100% (Sep 21, 1:50 AM)29.89 "Hg (Sep 21, 1:50 AM)
Low77 °F (Sep 25, 1:20 AM)39% (Sep 27, 2:20 PM)29.47 "Hg (Sep 16, 4:50 PM)
Average86 °F79%29.68 "Hg
* Reported Sep 15 2:50 PM — Sep 30 2:50 PM, Kolkata, Weather by CustomWeather, © 2014

Note: Actual official high and low records may vary slightly from our data, if they occured in-between our weather recording intervals... More about our weather records

Advertising

Kolkata weather history for previous 24 hours

 ConditionsComfort  
Time TempWeatherWind HumidityBarometerVisibility
2:50 PM
Sep 30
82 °FBroken clouds.5 mph84%29.77 "Hg2 mi
2:20 PM82 °FBroken clouds.6 mph84%29.77 "Hg2 mi
1:20 PM81 °FThunderstorms. More clouds than sun.9 mph89%29.80 "Hg1 mi
12:20 PM81 °FWarm.12 mph89%29.83 "Hg1 mi
11:50 AM86 °FLight rain. More clouds than sun.10 mph79%29.83 "Hg1 mi
11:20 AM91 °FScattered clouds.5 mph63%29.83 "Hg2 mi
10:50 AM93 °FScattered clouds.5 mph59%29.83 "Hg2 mi
10:20 AM91 °FScattered clouds.5 mph63%29.86 "Hg2 mi
9:50 AM91 °FHaze.5 mph63%29.86 "Hg2 mi
9:20 AM91 °FHaze.3 mph67%29.86 "Hg2 mi
8:20 AM88 °FFog.3 mph79%29.86 "Hg2 mi
7:50 AM86 °FFog.3 mph84%29.86 "Hg2 mi
7:20 AM84 °FFog.5 mph84%29.86 "Hg2 mi
6:50 AM84 °FFog.3 mph84%29.86 "Hg2 mi
6:20 AM82 °FFog.No wind84%29.83 "Hg2 mi
5:50 AM81 °FFog.No wind89%29.83 "Hg1 mi
5:20 AM81 °FFog.No wind89%29.80 "Hg1 mi
4:50 AM81 °FFog.No wind89%29.80 "Hg2 mi
4:20 AM81 °FFog.No wind89%29.80 "Hg2 mi
3:50 AM81 °FFog.No wind89%29.80 "Hg2 mi
3:20 AM81 °FFog.No wind89%29.77 "Hg1 mi
2:50 AM81 °FFog.3 mph89%29.77 "Hg1 mi
2:20 AM81 °FFog.No wind89%29.77 "Hg1 mi
1:50 AM81 °FFog.No wind89%29.80 "Hg1 mi
1:20 AM82 °FPassing clouds.No wind79%29.77 "Hg2 mi
12:50 AM82 °FPassing clouds.No wind79%29.80 "Hg2 mi
12:20 AM82 °FHaze.No wind79%29.80 "Hg2 mi
11:50 PM
Sep 29
82 °FHaze.5 mph74%29.80 "Hg2 mi
11:20 PM84 °FHaze.No wind70%29.80 "Hg2 mi
10:50 PM84 °FHaze.5 mph70%29.83 "Hg2 mi
10:20 PM84 °FHaze.5 mph70%29.80 "Hg2 mi
9:50 PM84 °FHaze.No wind70%29.80 "Hg2 mi
9:20 PM86 °FHaze.No wind62%29.83 "Hg2 mi
8:20 PM88 °FHaze.No wind59%29.80 "Hg2 mi
7:50 PM88 °FHaze.No wind59%29.77 "Hg2 mi
7:20 PM88 °FHaze.No wind59%29.77 "Hg2 mi
6:50 PM88 °FHaze.3 mph59%29.74 "Hg2 mi
6:20 PM90 °FHaze.3 mph55%29.77 "Hg2 mi
5:50 PM90 °FHaze.3 mph55%29.74 "Hg2 mi
5:20 PM91 °FHaze.5 mph49%29.71 "Hg2 mi
4:50 PM93 °FHaze.7 mph44%29.71 "Hg3 mi
4:20 PM93 °FHaze.6 mph44%29.74 "Hg3 mi
3:50 PM95 °FHaze.7 mph41%29.74 "Hg3 mi
3:20 PM95 °FHaze.8 mph44%29.74 "Hg3 mi
Weather by CustomWeather, © 2014

See weather overviewHow to use our weather pages